Total_Precipitation_Accumulation
1.61 2.06 2.68 3.31 4.09 5.16 5.81 5.90 5.51 4.74 4.14 3.62 3.30 2.93 2.67 2.46 2.06 1.69 1.44 1.26 1.18 1.08 1.14 1.07 1.04 1.03 1.00 1.01 1.15 1.31 1.38 1.21 1.36 1.60 1.50 1.25 1.01 0.96 0.93 0.83 0.86 0.86 0.90
1.48 2.08 2.84 3.64 4.24 4.78 5.12 5.11 4.66 3.88 3.36 2.97 2.83 2.54 2.30 1.99 1.75 1.51 1.38 1.16 1.09 1.01 0.97 1.01 0.90 0.86 0.94 0.93 0.97 1.11 1.14 1.02 1.11 1.32 1.39 1.20 1.13 0.92 0.61 0.67 0.70 0.68 0.83
1.65 2.43 3.25 3.97 4.21 4.20 3.97 3.66 3.43 3.04 2.89 2.73 2.48 2.23 2.14 1.87 1.61 1.33 1.19 1.02 0.91 0.84 0.80 0.78 0.74 0.75 0.73 0.78 0.87 0.96 1.05 1.00 0.91 0.96 1.11 1.02 0.97 0.88 0.68 0.55 0.59 0.70 0.81
1.78 2.51 3.08 3.29 3.35 3.21 2.89 2.71 2.63 2.51 2.41 2.28 2.13 1.79 1.55 1.46 1.31 1.17 1.11 1.02 0.91 0.85 0.78 0.69 0.67 0.67 0.61 0.72 0.66 0.76 0.91 0.96 0.81 0.81 0.81 0.81 0.86 0.86 0.82 0.69 0.58 0.69 0.73
1.35 1.59 1.82 1.97 2.07 2.04 2.09 2.13 2.23 2.30 2.15 2.07 2.01 1.85 1.55 1.49 1.46 1.41 1.38 1.26 1.09 0.92 0.76 0.73 0.70 0.70 0.58 0.62 0.65 0.77 0.83 0.87 0.80 0.77 0.79 0.86 0.86 0.74 0.77 0.78 0.74 0.76 0.64
0.83 0.94 1.04 1.16 1.38 1.40 1.46 1.59 1.69 1.81 1.91 1.88 1.72 1.64 1.53 1.56 1.57 1.47 1.30 1.12 1.02 0.91 0.80 0.78 0.84 0.77 0.71 0.70 0.68 0.71 0.74 0.85 0.91 0.88 0.81 0.83 0.86 0.74 0.72 0.66 0.64 0.73 0.68
0.67 0.82 0.94 1.05 1.23 1.14 1.12 1.21 1.31 1.34 1.46 1.46 1.40 1.40 1.46 1.46 1.36 1.25 1.14 0.99 0.82 0.77 0.79 0.77 0.81 0.80 0.83 0.78 0.79 0.79 0.72 0.78 0.87 0.84 0.82 0.79 0.75 0.80 0.83 0.82 0.73 0.77 0.78
0.57 0.66 0.67 0.76 0.86 0.79 0.83 0.93 1.05 1.12 1.16 1.20 1.22 1.22 1.27 1.20 1.15 1.20 1.11 0.95 0.80 0.75 0.74 0.72 0.71 0.76 0.80 0.79 0.94 0.88 0.86 0.88 0.85 0.80 0.95 0.90 0.78 0.87 0.91 0.99 1.08 1.03 1.02
0.44 0.49 0.40 0.44 0.55 0.64 0.70 0.74 0.90 1.01 1.02 1.09 1.11 1.07 1.11 1.14 1.18 1.17 1.06 0.92 0.91 0.83 0.82 0.79 0.85 0.88 0.88 0.92 1.04 1.01 0.97 1.02 0.91 0.88 0.98 0.98 0.95 0.98 0.95 1.10 1.26 1.34 1.28
0.33 0.35 0.33 0.32 0.39 0.51 0.66 0.75 0.85 0.93 0.96 1.03 1.01 0.85 0.97 1.08 1.20 1.15 1.05 0.96 0.99 0.91 0.93 0.91 0.92 0.99 0.96 0.96 1.07 1.08 1.13 1.17 1.12 1.09 1.10 1.09 1.08 1.16 1.09 1.17 1.29 1.37 1.47
0.34 0.32 0.27 0.27 0.29 0.37 0.55 0.67 0.78 0.86 0.88 0.94 1.00 1.05 1.04 0.96 1.04 1.07 1.06 1.08 1.09 1.01 1.00 1.02 1.06 1.06 1.09 1.15 1.21 1.14 1.20 1.31 1.45 1.43 1.39 1.41 1.44 1.42 1.35 1.40 1.39 1.36 1.50
0.29 0.29 0.31 0.32 0.32 0.32 0.42 0.52 0.61 0.74 0.80 0.89 1.01 1.07 1.13 1.02 1.00 1.01 1.08 1.13 1.18 1.21 1.17 1.13 1.12 1.05 1.08 1.23 1.28 1.31 1.33 1.35 1.38 1.53 1.74 1.73 1.67 1.56 1.43 1.49 1.44 1.39 1.58
0.36 0.33 0.36 0.39 0.43 0.41 0.41 0.50 0.60 0.74 0.85 0.93 0.99 1.06 1.12 1.05 1.03 1.13 1.22 1.23 1.33 1.42 1.42 1.35 1.25 1.17 1.16 1.21 1.27 1.34 1.35 1.37 1.44 1.56 1.67 1.74 1.86 1.72 1.58 1.52 1.48 1.51 1.62
0.40 0.32 0.32 0.34 0.39 0.51 0.57 0.61 0.78 0.78 0.77 0.90 0.99 1.06 1.11 1.11 1.14 1.24 1.32 1.33 1.39 1.50 1.55 1.50 1.44 1.41 1.31 1.21 1.18 1.19 1.24 1.38 1.52 1.56 1.51 1.61 1.86 1.93 1.86 1.70 1.62 1.65 1.74
0.39 0.32 0.30 0.31 0.39 0.52 0.55 0.60 0.70 0.89 0.92 1.05 1.18 1.24 1.34 1.41 1.46 1.53 1.54 1.49 1.48 1.49 1.61 1.69 1.68 1.60 1.42 1.20 1.19 1.26 1.22 1.34 1.41 1.39 1.31 1.31 1.49 1.71 1.81 1.67 1.62 1.66 1.66
0.39 0.41 0.43 0.41 0.43 0.48 0.55 0.61 0.65 0.80 0.99 1.24 1.50 1.52 1.60 1.67 1.77 1.90 1.98 1.90 1.85 1.90 1.95 1.90 1.82 1.70 1.35 1.30 1.23 1.21 1.24 1.30 1.31 1.28 1.24 1.13 1.07 1.13 1.29 1.45 1.58 1.68 1.61
0.55 0.57 0.63 0.59 0.56 0.56 0.59 0.65 0.71 0.84 1.06 1.30 1.55 1.73 1.84 1.91 2.01 2.12 2.14 2.08 2.13 2.25 2.28 2.16 1.98 1.83 1.71 1.55 1.31 1.21 1.15 1.16 1.16 1.18 1.17 0.99 0.89 0.98 0.97 1.12 1.25 1.38 1.45
0.63 0.64 0.73 0.77 0.72 0.70 0.77 0.86 0.99 1.14 1.33 1.50 1.68 1.83 1.86 1.88 1.95 2.03 1.98 1.99 2.10 2.17 2.20 2.15 2.02 1.93 1.82 1.64 1.35 1.26 1.10 1.11 1.13 1.15 1.14 1.09 1.03 1.00 1.04 1.06 1.07 1.08 1.15
0.66 0.70 0.76 0.85 0.88 0.89 0.96 1.02 1.11 1.22 1.39 1.53 1.60 1.64 1.75 1.82 1.86 1.89 1.93 1.99 1.99 1.90 1.82 1.81 1.83 1.82 1.85 1.72 1.41 1.28 1.17 1.25 1.25 1.23 1.21 1.21 1.15 1.21 1.08 1.01 1.02 1.03 1.06
0.64 0.73 0.73 0.77 0.86 0.96 0.95 0.98 1.07 1.23 1.42 1.57 1.59 1.60 1.70 1.75 1.79 1.83 1.88 1.87 1.81 1.76 1.72 1.67 1.70 1.72 1.73 1.67 1.33 1.22 1.16 1.27 1.29 1.31 1.29 1.23 1.11 1.09 0.97 0.89 0.96 0.96 0.96
0.64 0.67 0.74 0.80 0.85 0.94 0.97 1.03 1.12 1.23 1.32 1.40 1.45 1.51 1.64 1.75 1.78 1.82 1.80 1.77 1.73 1.76 1.78 1.71 1.63 1.60 1.60 1.61 1.33 1.19 1.09 1.22 1.35 1.33 1.28 1.25 1.14 0.91 0.83 0.80 0.84 0.87 0.90
0.75 0.77 0.82 0.95 1.01 1.05 1.06 1.11 1.08 1.09 1.18 1.19 1.22 1.23 1.32 1.46 1.52 1.58 1.58 1.61 1.58 1.54 1.53 1.51 1.43 1.38 1.41 1.37 1.27 1.09 0.97 1.04 1.19 1.29 1.31 1.31 1.16 0.89 0.76 0.66 0.63 0.61 0.57
0.91 0.88 0.87 0.92 0.98 1.08 1.14 1.18 1.11 1.03 1.01 1.01 0.99 1.02 1.06 1.24 1.39 1.42 1.40 1.42 1.42 1.40 1.36 1.33 1.28 1.25 1.22 1.18 1.01 0.86 0.77 0.81 0.94 1.12 1.28 1.20 1.01 0.83 0.69 0.62 0.57 0.52 0.48
0.66 0.73 0.78 0.86 1.00 0.98 0.99 1.04 1.04 0.98 0.99 1.01 1.01 1.04 1.11 1.22 1.44 1.52 1.41 1.36 1.34 1.29 1.27 1.23 1.23 1.26 1.28 1.22 1.02 0.82 0.68 0.72 0.84 0.95 1.04 1.06 1.04 0.99 0.91 0.78 0.67 0.57 0.58
0.50 0.54 0.60 0.63 0.70 0.72 0.75 0.79 0.83 0.88 0.91 0.90 0.87 0.86 0.94 1.07 1.27 1.39 1.36 1.22 1.19 1.22 1.25 1.23 1.19 1.13 1.10 1.09 0.98 0.84 0.80 0.84 0.93 0.93 1.00 1.02 1.09 1.13 1.13 1.06 0.96 0.88 0.84
0.45 0.51 0.54 0.56 0.58 0.63 0.72 0.80 0.90 0.98 0.97 0.91 0.85 0.82 0.83 0.92 1.11 1.31 1.38 1.23 1.04 1.06 1.04 0.99 0.96 0.93 0.87 0.83 0.81 0.77 0.75 0.80 0.85 0.82 0.96 1.10 1.20 1.27 1.28 1.26 1.15 1.04 0.94